Lexington Weather

Lexington, Massachusetts, USA

70°F
8/17/2022 7:14pm 
  • Lexington Conditions: Overcast
  • Temperature: 69.6°F / 20.9°CColder 0.6°F than last hour.
  • Dew Point: 56.8°FDecreased 2.4°Fsince last hour.
  • Relative Humidity: 64%Decreased 4.0% since last hour.
  • Wind: Calm, 10-min avg: Calm, gust: None
  • Barometer: 29.84 in Steady
  • Visibility: 10 miles
  • Rain Today: 0.00 in
  •   

Regional Weather Roundup
for Boston, MA

        
000
ASUS41 KBOX 112010
RWRBOX

REGIONAL WEATHER ROUNDUP
NATIONAL WEATHER SERVICE BOSTON/NORTON MA
400 PM EDT THU AUG 11 2022

NOTE:  "FAIR" INDICATES FEW OR NO CLOUDS BELOW 12,000 FEET WITH NO 
SIGNIFICANT WEATHER AND/OR OBSTRUCTIONS TO VISIBILITY.

MAZALL-112100-
EASTERN MASSACHUSETTS
  
CITY           SKY/WX    TMP DP  RH WIND       PRES   REMARKS
BOSTON         CLOUDY    75  67  76 E13       29.85F                  
BEVERLY        PTSUNNY   75  67  76 SE9       29.85F                  
LAWRENCE       CLOUDY    82  59  45 W5        29.86F                  
BEDFORD        CLOUDY    80  58  46 SW7       29.84F                  
BLUE HILL      NOT AVBL                                               
NORWOOD        CLOUDY    80  68  66 S7        29.84F                  
MARSHFIELD     PTSUNNY   73  70  88 SE6       29.86S                  
PLYMOUTH       CLOUDY    74  69  85 S6        29.87F                  
TAUNTON        CLOUDY    76  69  79 S6        29.86F                  
NEW BEDFORD    CLOUDY    74  70  87 VRB6      29.86F                  
$$

MAZALL-112100-
CAPE COD AND THE ISLANDS
  
CITY           SKY/WX    TMP DP  RH WIND       PRES   REMARKS
FALMOUTH       PTSUNNY   72  70  94 SE8       29.88S                  
HYANNIS        CLOUDY    70  67  90 SE7       29.87R                  
CHATHAM        CLOUDY    70  67  90 SE5       29.89S                  
NANTUCKET      PTSUNNY   70  68  93 E9        29.87S                  
MARTHAS VNYRD  CLOUDY    71  69  93 SE7       29.87F                  
$$
 
MAZALL-112100-
CENTRAL AND WESTERN MASSACHUSETTS
  
CITY           SKY/WX    TMP DP  RH WIND       PRES   REMARKS
WORCESTER      PTSUNNY   78  57  48 W5        29.90S                  
FITCHBURG      PTSUNNY   82  53  36 VRB6      29.87S                  
ORANGE         MOSUNNY   83  56  39 CALM      29.87F                  
SPRINGFIELD    PTSUNNY   83  56  38 SW6       29.82F                  
WESTFIELD      PTSUNNY   87  55  33 NW9G17    29.84F                  
NORTH ADAMS    MOSUNNY   81  60  48 VRB7      29.88F                  
PITTSFIELD     SUNNY     80  56  43 NW8       29.89F                  
$$
 
RIZALL-112100-
RHODE ISLAND
  
CITY           SKY/WX    TMP DP  RH WIND       PRES   REMARKS
PROVIDENCE     CLOUDY    75  69  81 SE10      29.87F                  
NEWPORT        CLOUDY    72  68  87 SE7       29.87S                  
BLOCK ISLAND   PTSUNNY   72  68  88 SE5       29.88F                  
SMITHFIELD     CLOUDY    75  69  81 VRB5      29.87F                  
WESTERLY       CLOUDY    75  69  81 S7        29.87F                  
$$
 
CTZALL-112100-
CONNECTICUT
  
CITY           SKY/WX    TMP DP  RH WIND       PRES   REMARKS
BRADLEY INTL   PTSUNNY   85  58  39 CALM      29.84F                  
HARTFORD       PTSUNNY   86  58  38 S6        29.83F                  
BRIDGEPORT     PTSUNNY   82  65  56 S9        29.85F                  
DANBURY        MOSUNNY   87  56  34 W8        29.87F                  
GROTON         PTSUNNY   77  69  76 S7        29.86F                  
NEW HAVEN      PTSUNNY   81  70  69 S8        29.86F                  
CHESTER        PTSUNNY   84  68  58 SE6       29.86F                  
MERIDEN        PTSUNNY   84  56  38 VRB5      29.85F                  
WILLIMANTIC    PTSUNNY   84  55  36 VRB5      29.86F                  
OXFORD         MOSUNNY   82  58  43 W7        29.89F                  
$$

MEZ002-015-021-024-NHZ003-005-008-011-012-014-VTZ005-008-112100-
NORTHERN NEW ENGLAND
  
CITY           SKY/WX    TMP DP  RH WIND       PRES   REMARKS
PORTLAND ME    PTSUNNY   71  65  81 S9        29.87S                  
BANGOR ME      PTSUNNY   73  62  68 S10       29.87F                  
CONCORD NH     PTSUNNY   82  60  47 VRB7      29.85F                  
MANCHESTER NH  PTSUNNY   84  54  35 W3        29.83F                  
NASHUA NH      PTSUNNY   83  58  42 VRB6      29.85F                  
PORTSMOUTH NH  PTSUNNY   73  64  72 SE8       29.85F                  
JAFFREY NH     PTSUNNY   81  55  40 W5        29.90S                  
KEENE NH       PTSUNNY   82  59  45 W8          N/A                   
BURLINGTON VT  CLOUDY    69  66  90 E6        29.89S                  
MT. WASHINGTON FOG       52  52 100 W15         N/A  VSB 1/8          
$$

NYZ052-076-112100-
EASTERN NEW YORK
  
CITY           SKY/WX    TMP DP  RH WIND       PRES   REMARKS
ALBANY         PTSUNNY   83  61  47 NW7       29.86F                  
NEW YORK CITY  PTSUNNY   90  51  26 VRB6      29.84F                  
$$
 
ANZALL-112100-
MARINE OBSERVATIONS
  
STATION/POSITION TIME  TEMP    WIND        PRES    VSBY  WAVE
                       AIR SEA DIR/SP/G                  HT/PER
                 (UTC) (F)     (DEG/KT/KT) (MB)    (MI)  (FT/S)
BOSTON BUOY      NOT AVBL
BUZZARDS BAY     NOT AVBL
NANTUCKET SOUND  NOT AVBL
MASS BAY-STELLWA NOT AVBL
ISLE OF SHOALS   NOT AVBL
S OF BLOCK IS    NOT AVBL
$$

......................KEY.........................
  SKY/WX - SKY CONDITION/PRESENT WEATHER
  TMP    - TEMPERATURE IN FAHRENHEIT
  DWPT   - DEWPOINT IN FAHRENHEIT
  RH     - RELATIVE HUMIDITY IN PERCENT
  WIND   - DIRECTION AND SPEED IN MPH
  PRES   - MEAN SEA LEVEL PRESSURE IN INCHES OF HG
  WCI    - WIND CHILL INDEX
  VSB    - VISIBILITY IN MILES
  HX     - HEAT INDEX
  TC     - TEMPERATURE IN CELSIUS
  VRB    - VARIABLE WIND DIRECTION
  N/A    - NOT AVAILABLE
  
      

Other recent Regional Weather Roundups

Wed Aug 17, 7:10pm

Wed Aug 17, 6:10pm

Wed Aug 17, 5:10pm

Wed Aug 17, 4:10pm

Wed Aug 17, 3:10pm

Wed Aug 17, 2:10pm

Wed Aug 17, 1:10pm

Wed Aug 17, 12:10pm

Wed Aug 17, 11:10am

Wed Aug 17, 10:10am

Wed Aug 17, 9:10am

Wed Aug 17, 8:10am

Wed Aug 17, 7:10am

Wed Aug 17, 6:10am

Wed Aug 17, 5:10am

Wed Aug 17, 4:10am

Wed Aug 17, 3:10am

Wed Aug 17, 2:10am

Wed Aug 17, 1:10am

Wed Aug 17, 12:10am

Tue Aug 16, 11:10pm

Tue Aug 16, 10:10pm

Tue Aug 16, 9:10pm

Tue Aug 16, 8:10pm

Tue Aug 16, 7:10pm

Tue Aug 16, 6:10pm

Tue Aug 16, 5:10pm

Tue Aug 16, 4:10pm

Tue Aug 16, 3:10pm

Tue Aug 16, 2:10pm

Tue Aug 16, 1:10pm

Tue Aug 16, 12:10pm

Tue Aug 16, 11:10am

Tue Aug 16, 10:10am

Tue Aug 16, 9:10am

Tue Aug 16, 8:10am

Tue Aug 16, 7:10am

Tue Aug 16, 6:10am

Tue Aug 16, 5:10am

Tue Aug 16, 4:10am

Tue Aug 16, 3:10am

Tue Aug 16, 2:10am

Tue Aug 16, 1:10am

Tue Aug 16, 12:10am

Mon Aug 15, 11:10pm

Mon Aug 15, 10:10pm

Mon Aug 15, 9:10pm

Mon Aug 15, 8:10pm

Mon Aug 15, 7:10pm

Mon Aug 15, 6:10pm

Mon Aug 15, 5:10pm

Mon Aug 15, 4:10pm

Mon Aug 15, 3:10pm

Mon Aug 15, 2:10pm

Mon Aug 15, 1:10pm

Mon Aug 15, 12:10pm

Mon Aug 15, 11:10am

Mon Aug 15, 10:10am

Mon Aug 15, 9:10am

Mon Aug 15, 8:10am

Mon Aug 15, 7:10am

Mon Aug 15, 6:10am

Mon Aug 15, 5:10am

Mon Aug 15, 4:10am

Mon Aug 15, 3:10am

Mon Aug 15, 2:10am

Mon Aug 15, 1:10am

Mon Aug 15, 12:10am

Sun Aug 14, 11:10pm

Sun Aug 14, 10:10pm

Sun Aug 14, 9:10pm

Sun Aug 14, 8:10pm

Sun Aug 14, 7:10pm

Sun Aug 14, 6:10pm

Sun Aug 14, 5:10pm

Sun Aug 14, 4:10pm

Sun Aug 14, 3:10pm

Sun Aug 14, 2:10pm

Sun Aug 14, 1:10pm

Sun Aug 14, 12:10pm

Sun Aug 14, 11:10am

Sun Aug 14, 10:10am

Sun Aug 14, 9:10am

Sun Aug 14, 8:10am

Sun Aug 14, 7:10am

Sun Aug 14, 6:10am

Sun Aug 14, 5:10am

Sun Aug 14, 4:10am

Sun Aug 14, 3:10am

Sun Aug 14, 2:10am

Sun Aug 14, 1:10am

Sun Aug 14, 12:10am

Sat Aug 13, 11:10pm

Sat Aug 13, 10:10pm

Sat Aug 13, 9:10pm

Sat Aug 13, 8:10pm

Sat Aug 13, 7:10pm

Sat Aug 13, 6:10pm

Sat Aug 13, 5:10pm

Sat Aug 13, 4:10pm

Sat Aug 13, 3:10pm

Sat Aug 13, 2:10pm

Sat Aug 13, 1:10pm

Sat Aug 13, 12:10pm

Sat Aug 13, 11:10am

Sat Aug 13, 10:10am

Sat Aug 13, 9:10am

Sat Aug 13, 8:10am

Sat Aug 13, 7:10am

Sat Aug 13, 6:10am

Sat Aug 13, 5:10am

Sat Aug 13, 4:10am

Sat Aug 13, 3:10am

Sat Aug 13, 2:10am

Sat Aug 13, 1:10am

Sat Aug 13, 12:10am

Fri Aug 12, 11:10pm

Fri Aug 12, 10:10pm

Fri Aug 12, 9:10pm

Fri Aug 12, 8:10pm

Fri Aug 12, 7:10pm

Fri Aug 12, 6:10pm

Fri Aug 12, 5:10pm

Fri Aug 12, 4:10pm

Fri Aug 12, 3:10pm

Fri Aug 12, 2:10pm

Fri Aug 12, 1:10pm

Fri Aug 12, 12:10pm

Fri Aug 12, 11:10am

Fri Aug 12, 10:10am

Fri Aug 12, 9:10am

Fri Aug 12, 8:10am

Fri Aug 12, 7:10am

Fri Aug 12, 6:10am

Fri Aug 12, 5:10am

Fri Aug 12, 4:10am

Fri Aug 12, 3:10am

Fri Aug 12, 2:10am

Fri Aug 12, 1:10am

Fri Aug 12, 12:10am

Thu Aug 11, 11:10pm

Thu Aug 11, 10:10pm

Thu Aug 11, 9:10pm

Thu Aug 11, 8:10pm

Thu Aug 11, 7:10pm

Thu Aug 11, 6:10pm

Thu Aug 11, 5:10pm

Thu Aug 11, 3:10pm

Thu Aug 11, 2:10pm

Thu Aug 11, 1:10pm

Thu Aug 11, 12:10pm

Thu Aug 11, 11:10am

Thu Aug 11, 10:10am

Thu Aug 11, 9:10am

Thu Aug 11, 8:10am

Thu Aug 11, 7:10am

Thu Aug 11, 6:10am

Thu Aug 11, 5:10am

Thu Aug 11, 4:10am

Thu Aug 11, 3:10am

Thu Aug 11, 2:10am

Thu Aug 11, 1:10am

Thu Aug 11, 12:10am

Wed Aug 10, 11:10pm

Wed Aug 10, 10:10pm

Wed Aug 10, 9:10pm

Wed Aug 10, 8:10pm

Meta data:

ID: 19908fea-7a1e-4edb-862d-1021f4b73a67
Link: https://api.weather.gov/products/19908fea-7a1e-4edb-862d-1021f4b73a67